Weather History for Lorain / Elyria, OH

Change the Weather History Date:

Monday, June 17, 2013

  Actual Average (KCLE) Record (KCLE)
Temperature  
Mean Temperature 72 °F 70 °F  
Max Temperature 82 °F 79 °F 93 °F (1994)
Min Temperature 64 °F 61 °F 38 °F (1980)
Degree Days  
Heating Degree Days 0 1  
Month to date heating degree days 33  
Since 1 June heating degree days 33  
Since 1 July heating degree days 5753  
Cooling Degree Days 8 6  
Month to date cooling degree days 75  
Year to date cooling degree days 134  
Since 1 June cooling degree days 75  
Growing Degree Days 22 (Base 50)    
Moisture  
Dew Point 63 °F    
Average Humidity 74    
Maximum Humidity 94    
Minimum Humidity 50    
Precipitation  
Precipitation 0.01 in 0.12 in 0.85 in (2012)
Month to date precipitation 1.98  
Year to date precipitation 17.12  
Snow  
Snow 0.00 in 0.00 in - ()
Month to date snowfall 0.0  
Since 1 June snowfall 0.0  
Since 1 July snowfall 68.1  
Snow Depth -    
Sea Level Pressure  
Sea Level Pressure 29.93 in    
Wind  
Wind Speed 7 mph (SW)    
Max Wind Speed 16 mph    
Max Gust Speed 23 mph    
Visibility 8 miles    
Events Rain , Thunderstorm    
T = Trace of Precipitation, MM = Missing Value Source: NWS Daily Summary

Daily Weather History Graph

Daily Weather History Graph

Search for Another Location

Airport:

Trip Planner

Search our weather history database for the weather conditions in past years. The results will help you decide how hot, cold, wet, or windy it might be!

Date:

Astronomy

Jun. 17, 2013 Rise Set
Actual Time 5:54 AM EDT 9:04 PM EDT
Civil Twilight 5:21 AM EDT 9:38 PM EDT
Nautical Twilight 4:37 AM EDT 10:21 PM EDT
Astronomical Twilight 3:45 AM EDT 11:13 PM EDT
Moon 2:38 PM EDT (6/17) 1:33 AM EDT (6/17)
Length of Visible Light 16h 17m
Length of Day
15h 09m
First Quarter, 60% of the Moon is Illuminated
Jun 17
First Quarter
Jun 23
Full
Jun 30
Last Quarter
Jul 8
New
Jul 15
First Quarter

Hourly Weather History & Observations

Time (EDT) Temp. Heat Index Dew Point Humidity Pressure Visibility Wind Dir Wind Speed Gust Speed Precip Events Conditions
12:53 AM 71.1 °F - 64.9 °F 81% 29.92 in 10.0 mi West 6.9 mph - N/A   Clear
1:53 AM 66.0 °F - 63.0 °F 90% 29.92 in 10.0 mi WSW 5.8 mph - N/A   Clear
2:53 AM 66.0 °F - 63.0 °F 90% 29.92 in 9.0 mi SW 5.8 mph - N/A   Partly Cloudy
3:53 AM 64.9 °F - 63.0 °F 93% 29.91 in 4.0 mi West 5.8 mph - N/A   Clear
4:53 AM 64.0 °F - 62.1 °F 93% 29.92 in 5.0 mi WSW 4.6 mph - N/A   Clear
5:53 AM 64.0 °F - 62.1 °F 93% 29.93 in 3.0 mi WSW 5.8 mph - N/A   Clear
6:32 AM 64.4 °F - 62.6 °F 94% 29.95 in 2.5 mi WSW 3.5 mph - N/A   Clear
6:53 AM 66.0 °F - 64.0 °F 93% 29.95 in 3.0 mi WSW 4.6 mph - 0.01 in   Clear
7:53 AM 69.1 °F - 66.0 °F 90% 29.94 in 4.0 mi WSW 8.1 mph - N/A   Clear
8:53 AM 73.0 °F - 68.0 °F 84% 29.94 in 6.0 mi SW 6.9 mph - N/A   Haze
9:53 AM 77.0 °F - 68.0 °F 74% 29.93 in 10.0 mi WSW 8.1 mph - N/A   Clear
10:53 AM 80.1 °F 81.9 °F 64.9 °F 60% 29.94 in 10.0 mi West 8.1 mph - N/A   Clear
11:53 AM 80.1 °F 82.7 °F 68.0 °F 67% 29.94 in 10.0 mi NW 4.6 mph - N/A   Mostly Cloudy
12:53 PM 81.0 °F 82.7 °F 64.9 °F 58% 29.94 in 10.0 mi WSW 5.8 mph - N/A   Mostly Cloudy
1:37 PM 78.8 °F - 64.4 °F 61% 29.94 in 9.0 mi West 5.8 mph - 0.00 in Rain , Thunderstorm Light Thunderstorms and Rain
1:53 PM 73.9 °F - 60.1 °F 62% 29.94 in 10.0 mi SW 16.1 mph 23.0 mph 0.00 in Thunderstorm Mostly Cloudy
2:13 PM 71.6 °F - 60.8 °F 69% 29.95 in 10.0 mi WSW 15.0 mph 21.9 mph N/A Thunderstorm Mostly Cloudy
2:53 PM 70.0 °F - 59.0 °F 68% 29.94 in 10.0 mi South 4.6 mph - N/A Thunderstorm Partly Cloudy
3:39 PM 71.6 °F - 59.0 °F 64% 29.95 in 10.0 mi SW 6.9 mph 18.4 mph N/A   Overcast
3:53 PM 72.0 °F - 57.9 °F 61% 29.94 in 10.0 mi SW 10.4 mph - N/A   Overcast
4:53 PM 75.0 °F - 59.0 °F 57% 29.92 in 10.0 mi South 5.8 mph - N/A   Clear
5:53 PM 78.1 °F - 57.9 °F 50% 29.90 in 10.0 mi South 5.8 mph - N/A   Clear
6:53 PM 77.0 °F - 61.0 °F 58% 29.88 in 10.0 mi South 6.9 mph - N/A   Clear
7:53 PM 73.9 °F - 61.0 °F 64% 29.89 in 10.0 mi South 9.2 mph - N/A   Clear
8:53 PM 73.0 °F - 64.0 °F 73% 29.90 in 10.0 mi South 8.1 mph - N/A   Clear
9:53 PM 70.0 °F - 62.1 °F 76% 29.90 in 10.0 mi SSE 6.9 mph - N/A   Clear
10:53 PM 69.1 °F - 62.1 °F 78% 29.90 in 10.0 mi SSE 3.5 mph - N/A   Clear
11:53 PM 68.0 °F - 61.0 °F 78% 29.91 in 10.0 mi NE 11.5 mph 16.1 mph N/A   Clear